Trabzon, Turkey

4:08 AM +03 on June 28, 2017 (GMT +0300)
Trabzon

Weather History for LTCG - November, 2013

Change the Weather History Date:

Thursday, November 7, 2013

  Actual Average Record
Temperature  
Mean Temperature 70 °F -  
Max Temperature 81 °F 57 °F 81 °F (2013)
Min Temperature 59 °F 47 °F 44 °F (1997)
Cooling Degree Days 6    
Growing Degree Days 20 (Base 50)    
Moisture  
Dew Point 45 °F    
Average Humidity 42    
Maximum Humidity 94    
Minimum Humidity 11    
Precipitation  
Precipitation 0.02 in - - ()
Sea Level Pressure  
Sea Level Pressure 29.89 in    
Wind  
Wind Speed 9 mph ()    
Max Wind Speed 28 mph    
Max Gust Speed 39 mph    
Visibility 6.2 miles    
Events Rain    
Averages and records for this station are not official NWS values.
T = Trace of Precipitation, MM = Missing Value Source: Averaged Metar Reports

Daily Weather History Graph

Daily Weather History Graph

Search for Another Location

Airport or City:

Trip Planner

Search our weather history database for the weather conditions in past years. The results will help you decide how hot, cold, wet, or windy it might be!

Date:

Astronomy

Nov. 07, 2013 Rise Set
Actual Time 5:58 AM EET 4:09 PM EET
Civil Twilight 5:29 AM EET 4:38 PM EET
Nautical Twilight 4:56 AM EET 5:11 PM EET
Astronomical Twilight 4:24 AM EET 5:43 PM EET
Moon 9:49 AM EET (11/7) 7:56 PM EET (11/7)
Length of Visible Light 11h 09m
Length of Day
10h 11m
Waxing Crescent, 19% of the Moon is Illuminated
Nov 7
Waxing Crescent
Nov 10
First Quarter
Nov 17
Full
Nov 25
Last Quarter
Dec 3
New

Hourly Weather History & Observations

Time (EET) Temp. Dew Point Humidity Pressure Visibility Wind Dir Wind Speed Gust Speed Precip Events Conditions
12:20 AM 68.0 °F 41.0 °F 37% 29.89 in 6.2 mi Variable 1.2 mph - N/A   Partly Cloudy
12:50 AM 77.0 °F 35.6 °F 22% 29.89 in 6.2 mi SSW 9.2 mph - N/A   Partly Cloudy
1:20 AM 75.2 °F 35.6 °F 24% 29.89 in - SSW 11.5 mph - N/A   Clear
1:50 AM 77.0 °F 35.6 °F 22% 29.89 in - SW 12.7 mph - N/A   Clear
2:00 AM 76 °F 35 °F 13% 29.90 in 6 mi SW 12.7 mph - -  
2:20 AM 75.2 °F 35.6 °F 24% 29.89 in - SW 13.8 mph - N/A   Clear
2:50 AM 75.2 °F 35.6 °F 24% 29.89 in - SW 12.7 mph - N/A   Clear
3:20 AM 75.2 °F 35.6 °F 24% 29.89 in - SW 11.5 mph - N/A   Clear
3:50 AM 77.0 °F 35.6 °F 22% 29.89 in - SSW 12.7 mph - N/A   Clear
4:20 AM 75.2 °F 35.6 °F 24% 29.89 in - SW 10.4 mph - N/A   Clear
4:50 AM 77.0 °F 35.6 °F 22% 29.89 in - SSW 10.4 mph - N/A   Clear
5:20 AM 75.2 °F 35.6 °F 24% 29.89 in - SW 6.9 mph - N/A   Clear
5:50 AM 71.6 °F 37.4 °F 29% 29.89 in - South 3.5 mph 15.0 mph N/A   Clear
6:20 AM 75.2 °F 35.6 °F 24% 29.89 in - SSW 11.5 mph - N/A   Clear
6:50 AM 77.0 °F 35.6 °F 22% 29.89 in - SW 11.5 mph - N/A   Clear
7:20 AM 77.0 °F 37.4 °F 24% 29.89 in 6.2 mi SSW 12.7 mph - N/A   Scattered Clouds
7:50 AM 78.8 °F 35.6 °F 21% 29.89 in 6.2 mi SSW 15.0 mph - N/A   Scattered Clouds
8:00 AM 79 °F 35 °F 11% 29.89 in 12 mi SSW 15.0 mph - -   Partly Cloudy
8:20 AM 78.8 °F 37.4 °F 23% 29.89 in 6.2 mi SW 9.2 mph - N/A   Scattered Clouds
8:50 AM 78.8 °F 37.4 °F 23% 29.89 in 6.2 mi SW 10.4 mph - N/A   Scattered Clouds
9:20 AM 80.6 °F 39.2 °F 23% 29.89 in 6.2 mi SW 5.8 mph - N/A   Scattered Clouds
9:50 AM 73.4 °F 48.2 °F 41% 29.89 in 6.2 mi ENE 5.8 mph - N/A   Scattered Clouds
10:20 AM 73.4 °F 48.2 °F 41% 29.86 in 6.2 mi Variable 2.3 mph - N/A   Scattered Clouds
10:50 AM 73.4 °F 46.4 °F 38% 29.86 in 6.2 mi Variable 2.3 mph - N/A   Mostly Cloudy
11:20 AM 77.0 °F 42.8 °F 29% 29.86 in 6.2 mi South 4.6 mph - N/A   Mostly Cloudy
11:50 AM 75.2 °F 46.4 °F 36% 29.86 in 6.2 mi Calm Calm - N/A   Mostly Cloudy
12:20 PM 77.0 °F 53.6 °F 44% 29.86 in 6.2 mi Variable 1.2 mph - N/A   Mostly Cloudy
12:50 PM 75.2 °F 46.4 °F 36% 29.86 in 6.2 mi WNW 4.6 mph - N/A   Mostly Cloudy
1:20 PM 73.4 °F 46.4 °F 38% 29.86 in 6.2 mi Calm Calm - N/A   Mostly Cloudy
1:50 PM 75.2 °F 50.0 °F 41% 29.86 in 5.6 mi Calm Calm - N/A   Mostly Cloudy
2:00 PM 75 °F 50 °F 30% 29.86 in 6 mi Calm Calm - -   Smoke
2:20 PM 75.2 °F 48.2 °F 38% 29.86 in 5.6 mi SE 4.6 mph - N/A   Mostly Cloudy
2:50 PM 71.6 °F 51.8 °F 50% 29.86 in 5.6 mi ESE 4.6 mph - N/A   Mostly Cloudy
3:20 PM 69.8 °F 51.8 °F 53% 29.86 in 5.6 mi Variable 2.3 mph - N/A   Mostly Cloudy
3:50 PM 71.6 °F 46.4 °F 41% 29.83 in 5.6 mi SSE 4.6 mph - N/A   Mostly Cloudy
4:20 PM 69.8 °F 55.4 °F 60% 29.83 in 4.3 mi Variable 3.5 mph - N/A   Mostly Cloudy
4:50 PM 69.8 °F 46.4 °F 43% 29.83 in 3.7 mi SW 5.8 mph - N/A   Mostly Cloudy
5:20 PM 69.8 °F 44.6 °F 40% 29.83 in 5.6 mi SSW 6.9 mph - N/A   Mostly Cloudy
5:50 PM 68.0 °F 44.6 °F 43% 29.83 in 6.2 mi Calm Calm - N/A   Mostly Cloudy
6:20 PM 68.0 °F 50.0 °F 52% 29.83 in 6.2 mi East 4.6 mph - N/A   Mostly Cloudy
6:50 PM 69.8 °F 53.6 °F 56% 29.89 in 6.2 mi West 13.8 mph - N/A   Mostly Cloudy
7:20 PM 68.0 °F 53.6 °F 60% 29.89 in 6.2 mi WNW 27.6 mph - N/A   Mostly Cloudy
7:50 PM 66.2 °F 55.4 °F 68% 29.89 in 6.2 mi WNW 24.2 mph 36.8 mph N/A   Mostly Cloudy
8:00 PM 65 °F 56 °F 64% 29.91 in 12 mi WNW 24.2 mph - -   Partly Cloudy
8:20 PM 64.4 °F 57.2 °F 77% 29.92 in 6.2 mi WNW 24.2 mph - N/A   Mostly Cloudy
8:50 PM 62.6 °F 59.0 °F 88% 29.95 in 6.2 mi WNW 25.3 mph 36.8 mph N/A   Mostly Cloudy
9:20 PM 62.6 °F 57.2 °F 82% 29.95 in 6.2 mi WNW 25.3 mph 39.1 mph N/A   Mostly Cloudy
9:50 PM 62.6 °F 57.2 °F 82% 29.98 in 6.2 mi WNW 24.2 mph 38.0 mph N/A Rain Light Rain Showers
10:20 PM 60.8 °F 57.2 °F 88% 29.98 in 6.2 mi WNW 24.2 mph - N/A Rain Light Rain Showers
10:50 PM 60.8 °F 57.2 °F 88% 30.01 in 6.2 mi WNW 24.2 mph - N/A Rain Light Rain Showers
11:20 PM 60.8 °F 55.4 °F 82% 30.04 in 3.7 mi WNW 21.9 mph - N/A Rain Light Rain Showers
11:50 PM 59.0 °F 57.2 °F 94% 30.04 in 3.7 mi WNW 20.7 mph - N/A Rain Light Rain Showers